Location: Cañada de la Miga
(34.7595°N, 106.2317°W)
Time: 21:55:06
(UTC+00:00)

Explorer 7 - Visible Passes

Search period start: 06 December 2021 00:00
Search period end: 16 December 2021 00:00
Orbit: 483 x 675 km, 50.3° (Epoch: 06 December)

Date Brightness Start Highest point End Pass type
(mag) Time Alt. Az. Time Alt. Az. Time Alt. Az.
06 Dec 8.6 11:49:13 24° NNE 11:49:13 24° NNE 11:51:05 10° NE visible
06 Dec 8.9 13:26:18 10° NW 13:28:17 13° NNW 13:30:13 10° N visible
07 Dec 9.0 11:53:31 18° NNE 11:53:31 18° NNE 11:54:53 10° NNE visible
07 Dec 9.1 13:31:42 10° NNW 13:32:40 11° NNW 13:33:38 10° N visible
08 Dec 9.2 11:57:40 14° NNE 11:57:40 14° NNE 11:58:38 10° NNE visible
09 Dec 9.3 12:01:44 12° N 12:01:44 12° N 12:02:20 10° NNE visible
10 Dec 9.4 12:05:43 11° N 12:05:43 11° N 12:05:59 10° NNE visible
14 Dec 9.4 12:21:19 10° N 12:21:39 10° N 12:22:23 10° NNE visible
15 Dec 9.3 12:25:11 11° N 12:26:05 12° NNE 12:27:43 10° NE visible
